Location: Demmingen
(48.6757°N, 10.4375°E)
Time: 21:44:36
(UTC+00:00)

SL-16 R/B - Pass Details

Date: 15 August 2024
Orbit: 842 x 845 km, 71.0° (Epoch: 10 September)

Event Time Altitude Azimuth Distance (km) Brightness Sun altitude
Exits shadow 01:26:47 - 283° (WNW) 3,217 5.0 -21.6°
Reaches altitude 10° 01:30:25 10° 311° (NW) 2,473 4.7 -21.3°
Maximum altitude 01:32:29 12° 333° (NNW) 2,340 4.8 -21.1°
Drops below altitude 10° 01:34:34 10° 354° (N) 2,477 5.3 -20.9°
Sets 01:38:54 0° 26° (NNE) 3,416 6.9 -20.5°
